Погода в Алексеевке

Россия / Республика Мордовия     54°37′59″N   43°08′09″E
темп.,
°C
ветер,
м/с
пор.,
м/с
влажн.,
%
обл.,
%
осадки,
мм/ч
давл.,
гПа
погр.,
м
21 апреля, ср
ср2100:00+5вюв81990100 5.3 10131148
03:00+5юв82090100 14.1 10101229
06:00+6юв102085100 0.1 10091038
09:00+7юв81878100 0.3 1010957
12:00+9ююв81481100 0.1 10091040
15:00+8ююв7138779 0.4 1010790
18:00+8ююз4997100 1.5 1010666
21:00+5юз4993100 3.4 1015855
22 апреля, чт
чт2200:00+5ююз31088100 0.0 1016688
03:00+5ююв2692100 0.0 1017221
06:00+6ю499578 0.2 1017467
09:00+7юз4883100 0.4 1019777
12:00+8юз387949 0.1 1020879
15:00+10юз366258 0.1 10211370
18:00+10ю246472 0.0 1021143
21:00+7ююв247752 0.0 102274
23 апреля, пт
пт2300:00+6ююв368258 0.0 1022102
03:00+5юв378664 0.0 1021117
06:00+7ююв3978100 0.0 1021222
09:00+10ююв386882 0.0 1021270
12:00+16ю4541100 0.0 10202433
15:00+16ююв354179 0.0 10191873
18:00+13юв376499 0.0 1019294
21:00+11юв2672100 0.0 1018132
24 апреля, сб
сб2400:00+9юв2672100 0.0 1017121
03:00+7юв3784100 0.0 1015164
06:00+7юв399398 0.3 1014317
09:00+12ююв61072100 0.5 10121204
12:00+15ююв695551 0.6 10091803
15:00+15ю5956100 2.1 10062017
18:00+9юз61087100 1.6 10071348
21:00+5зюз51085100 2.3 10091006
25 апреля, вс
вс2500:00+5юз499018 0.1 1009665
03:00+3юз310885 0.1 1010356
06:00+3юз310855 0.0 1010406
09:00+7зюз49615 0.0 10111367
12:00+10зюз5942100 0.0 10112353
15:00+11зюз693799 0.0 10102630
18:00+9зюз47497 0.0 10111333
21:00+5ююз2871100 0.3 1012195